Regional Weather Roundup
Issued by NWS

Home | Current Version | Previous Version | Graphics & Text | Print | Product List | Glossary Off
Versions: 1 2 3 4 5 6 7 8 9 10 11 12 13 14 15 16 17 18 19 20 21 22 23 24 25 26 27 28 29 30 31 32 33 34 35 36 37 38 39 40 41 42 43 44 45 46 47 48 49 50

000
ASUS43 KMKX 160800
RWRWI

WISCONSIN REGIONAL WEATHER ROUNDUP
NATIONAL WEATHER SERVICE MILWAUKEE/SULLIVAN WI
300 AM CDT WED AUG 16 2017

NOTE: "FAIR" INDICATES FEW OR NO CLOUDS BELOW 12,000 FEET WITH NO
SIGNIFICANT WEATHER AND/OR OBSTRUCTIONS TO VISIBILITY.

WIZ001-002-006>008-014>016-023>028-160900-
NORTHWEST WISCONSIN

CITY           SKY/WX    TMP DP  RH WIND       PRES   REMARKS
SUPERIOR ARPT    N/A     61  59  94 NE6       30.01S
ASHLAND        CLOUDY    51  51 100 CALM      30.04R FOG
HAYWARD        CLOUDY    56  53  90 NE3       30.03R
SIREN          CLOUDY    62  59  91 SE3       30.00S
CUMBERLAND     CLOUDY    55  55 100 E5        30.01R
RICE LAKE      CLOUDY    59  57  93 CALM      30.02R
CHETEK         CLOUDY    61  59  92 E5        30.01R
LADYSMITH      MOCLDY    59  55  85 E6        30.03F
EAU CLAIRE     PTCLDY    63  57  81 E3        29.99R
MENOMONIE      CLOUDY    61  58  91 E3        29.99R
NEW RICHMOND   CLOUDY    61  57  86 E3        29.99R
OSCEOLA        CLOUDY    61  57  85 SE3       30.01R
$$

WIZ003>005-009-010-017-018-160900-
NORTH CENTRAL WISCONSIN

CITY           SKY/WX    TMP DP  RH WIND       PRES   REMARKS
MANITOWISH WTR CLOUDY    48  48 100 CALM      30.05R
ARBOR VITAE    PTCLDY    57  55  94 CALM      30.05R
WOODRUFF       PTCLDY    57  55  94 CALM      30.05R
RHINELANDER    MOCLDY    57  57 100 SE3       30.07R
EAGLE RIVER    MOCLDY    56  56 100 SE5       30.06R
LAND O LAKES   CLOUDY    53  53  99 CALM      30.08R FOG
PHILLIPS       PTCLDY    53  53 100 CALM      30.04S
TOMAHAWK         N/A     50  49  97 CALM      30.06R
MEDFORD        PTCLDY    56  54  95 E3        30.03S
MERRILL        NOT AVBL
$$

WIZ029-030-035-036-043>047-160900-
CENTRAL WISCONSIN

CITY           SKY/WX    TMP DP  RH WIND       PRES   REMARKS
WAUSAU         CLOUDY    59  58  96 E6        30.03S
MOSINEE        CLOUDY    57  57 100 E3        30.05R
MARSHFIELD     CLOUDY    62  58  86 SE5       30.02S
STEVENS POINT  CLOUDY    59  59 100 CALM      30.04R
WAUPACA        CLOUDY    62  61  97 CALM      30.03S
WAUTOMA        CLOUDY    60  58  92 CALM      30.03S
WISC RAPIDS    CLOUDY    63  59  87 SE6       30.03S
CAMP DOUGLAS   NOT AVBL
$$

WIZ011>013-019>022-031-037>040-048>050-160900-
NORTHEAST WISCONSIN

CITY           SKY/WX    TMP DP  RH WIND       PRES   REMARKS
ANTIGO         MOCLDY    57  57 100 CALM      30.07R
SHAWANO        CLOUDY    62  60  93 CALM      30.05R
OCONTO         CLOUDY    60  59  96 CALM      30.04S
STURGEON BAY   CLOUDY    62  60  93 NE3       30.05S
GREEN BAY      MOCLDY    61  61 100 CALM      30.04R
MANITOWOC      NOT AVBL
APPLETON       MOCLDY    64  55  72 E3        30.02S
CLINTONVILLE     N/A     61  59  94 NE3       30.04S
OSHKOSH        PTCLDY    62  59  90 CALM      30.02S
$$

WIZ032>034-041-042-053>061-160900-
SOUTHWEST WISCONSIN

CITY           SKY/WX    TMP DP  RH WIND       PRES   REMARKS
LA CROSSE      LGT RAIN  68  63  84 E6        29.97S
SPARTA         CLOUDY    63  59  88 CALM      30.00S
VIROQUA        CLOUDY    64  62  94 E8        30.00S
BOSCOBEL       PTCLDY    65  61  87 NE5       29.98S
PRAIRIE DU CHI CLOUDY    65  61  85 E6        29.96S
PLATTEVILLE    CLEAR     63  63 100 E9        29.99S
$$

WIZ056-057-062-063-064-067-068-160900-
SOUTH CENTRAL WISCONSIN

CITY           SKY/WX    TMP DP  RH WIND       PRES   REMARKS
REEDSBURG      LGT RAIN  63  62  98 CALM      30.01R
BARABOO/DELLS  CLOUDY    63  57  82 SE3       30.02R
LONE ROCK      NOT AVBL
MINERAL POINT  PTCLDY    64  63  94 E7        30.00S
MADISON        CLOUDY    63  60  90 CALM      30.02R
MIDDLETON      CLOUDY    65  61  85 SE7       30.02R
WATERTOWN      PTCLDY    58  58 100 E3        30.01S
MONROE         MOCLDY    63  59  88 E7        30.00R
JANESVILLE     PTCLDY    61  61 100 CALM      30.00R
$$

WIZ051-052-058>065-066-070>072-160900-
SOUTHEAST WISCONSIN

CITY           SKY/WX    TMP DP  RH WIND       PRES   REMARKS
MILWAUKEE      MOCLDY    63  60  90 CALM      30.00F
WAUKESHA       CLEAR     55  55 100 CALM      30.03S
MILWAUKEE/TIMM CLOUDY    59  54  82 CALM      30.02S
RACINE         CLEAR     61  59  93 CALM      30.02S
KENOSHA        CLEAR     60  57  89 N3        30.00F
FOND DU LAC    CLOUDY    59  56  89 CALM      30.03R
SHEBOYGAN      CLOUDY    57  57 100 CALM      30.03R
WEST BEND      PTCLDY    54  54 100 CALM      30.02F
JUNEAU         CLOUDY    59  57  94 CALM      30.03R
$$

LSZ147-162-160900-
LAKE SUPERIOR

STATION/POSITION TIME  TEMP    WIND        PRES    WAVE
                       AIR SEA DIR/SP/G            HT/PER
                 (UTC) (F)     (DEG/KT/KT) (MB)    (FT/S)
W MID LAKE BUOY  0650   61 60  100/  8/ 10 1017.2R   1/ 5
DEVILS ISLAND    0700   62     100/  5/  7 1017.0S
SAXON HARBOR     0730   53     200/  3/  4 1016.3F
$$

LMZ867-665-643>646-160900-
LAKE MICHIGAN

STATION/POSITION TIME  TEMP    WIND        PRES    WAVE
                       AIR SEA DIR/SP/G            HT/PER
                 (UTC) (F)     (DEG/KT/KT) (MB)    (FT/S)
S GREEN BAY BUOY 0730   66 72  100/ 12/ 14 1016.9S
N MID LAKE BUOY  0650   64 67   70/ 12/ 12 1017.6S   1/ 4
NORTHPORT PIER   0740   64      70/  7/  8 1017.3S
KEWAUNEE LAKESHO 0730   66      70/  5/  9 1016.0F
SHEBOYGAN LAKESH 0700   68      70/  9/ 10 1016.2F
PORT WASHINGTON  0740   63     310/  2/  3 1016.9F
MILWAUKEE LAKESH 0750   69      70/  8/  8   N/A
S MID LAKE BUOY  0650   70 71   50/  6/  8 1015.8F   2/ 5
KENOSHA   LAKESH 0700   70      70/  8/  9 1015.9
$$

TC  - TEMPERATURE IN CELSIUS
VSB - VISIBILITY IN STATUTE MILES
WCI - WIND CHILL INDEX
HX  - HEAT INDEX





USA.gov is the U.S. government's official web portal to all federal, state and local government web resources and services.